Wind_Speed
6 5 5 5 5 4 4 4 5 5 5 6 6 6 6 6 7 7 8 8 8 8 8 9 9 10 9 9 9 9 10 10 10 9 9 9 9 10 9 9 9 9 8 8 8 7 7 7 7
6 6 5 5 5 4 5 5 5 5 6 6 6 6 6 6 7 7 8 8 8 8 9 9 9 10 10 9 9 9 9 9 10 9 9 10 10 10 9 9 9 8 8 8 8 7 7 8 8
6 5 5 4 4 5 5 5 5 5 6 6 6 6 6 6 6 7 7 8 8 8 8 8 9 9 10 10 10 10 9 9 10 10 10 10 10 9 9 9 9 8 9 9 8 8 8 8 8
5 5 4 4 5 5 6 6 5 5 5 6 6 6 6 6 7 7 7 7 7 7 8 8 8 9 9 9 10 10 10 10 10 10 10 10 10 10 10 9 9 9 9 8 8 8 8 9 8
5 4 3 4 5 5 6 6 6 6 6 6 6 6 6 6 6 6 7 7 7 7 8 8 8 9 9 9 9 10 11 11 11 10 10 10 9 9 10 10 10 9 9 8 8 8 9 9 9
5 4 4 4 5 5 5 5 5 6 6 6 6 6 6 6 6 6 7 7 7 7 7 8 8 8 8 8 9 9 10 10 10 10 10 10 10 10 10 10 10 9 9 9 9 8 9 9 10
5 5 4 4 4 5 5 6 6 6 6 6 7 7 6 6 6 6 7 7 7 7 7 7 8 8 8 8 8 9 9 10 10 10 10 10 10 10 10 10 10 10 9 9 9 10 10 10 10
5 5 5 4 5 5 6 6 6 6 6 7 7 7 6 6 6 6 6 6 6 7 7 7 7 7 7 8 8 8 8 9 10 10 10 10 10 10 11 10 10 10 10 11 11 11 11 11 11
5 5 5 6 6 6 6 6 6 7 6 7 7 7 6 6 6 6 6 6 7 7 7 7 6 6 6 6 7 7 7 8 9 10 10 10 10 10 10 10 11 11 12 12 11 12 11 11 11
6 5 5 6 7 7 7 6 6 6 6 6 7 7 6 6 6 6 6 6 7 7 7 6 6 6 6 6 6 6 7 7 8 9 9 9 10 10 10 10 11 12 12 12 12 12 12 12 12
6 6 6 6 7 7 7 7 7 7 6 6 6 6 6 6 6 6 6 6 6 6 7 7 7 7 6 6 6 6 7 7 7 8 8 9 9 9 9 9 10 11 11 11 11 11 12 12 12
6 6 6 7 7 7 7 7 7 6 7 7 6 6 6 5 6 6 6 6 7 6 7 7 6 6 5 5 5 6 6 7 7 8 9 9 9 9 9 9 10 10 10 10 10 10 10 11 11
7 7 7 7 7 7 7 7 6 6 6 6 6 6 6 6 5 6 6 6 6 7 6 6 6 5 5 6 6 6 6 6 6 7 7 7 7 8 8 9 10 10 10 10 9 9 10 11 11
7 7 7 7 7 8 7 7 7 6 6 6 6 6 5 5 6 6 6 6 6 7 7 7 6 6 6 6 7 7 6 6 5 5 6 6 6 7 8 8 9 9 9 9 9 9 10 10 11
7 7 8 7 8 8 8 7 7 6 6 6 6 6 5 6 6 6 6 6 6 7 7 7 6 6 6 7 7 7 7 6 6 6 7 7 7 7 8 8 8 8 8 8 9 9 9 9 9
7 8 8 8 8 8 8 7 7 7 7 7 6 6 5 6 6 6 6 6 7 7 7 7 7 6 7 7 7 7 7 7 8 8 8 8 8 8 8 8 8 8 8 8 9 9 9 9 9
7 8 8 8 8 8 7 7 8 7 7 7 7 6 6 6 6 6 6 7 7 8 8 8 8 8 8 8 7 7 7 8 8 8 9 8 8 8 8 8 8 8 8 8 8 9 9 9 9
6 7 8 9 9 9 8 7 8 9 8 8 8 8 8 7 7 7 7 8 8 9 9 9 9 9 9 9 8 8 8 9 8 9 8 8 8 8 8 8 8 8 8 9 9 9 9 10 9
7 7 8 9 9 9 9 9 9 9 9 8 9 9 9 8 8 8 8 8 9 9 9 9 10 10 10 9 9 9 8 9 9 9 9 8 8 8 8 8 8 8 9 9 9 10 10 10 10
7 8 8 8 9 9 9 9 8 9 10 10 10 10 10 10 9 8 8 9 9 9 10 10 10 10 10 10 9 9 9 9 9 9 8 8 8 8 8 9 9 9 9 10 10 10 10 10 11
8 8 8 9 8 9 9 9 8 9 10 11 10 10 10 10 10 9 9 9 9 10 10 11 11 11 10 11 10 9 9 10 10 9 9 8 9 9 9 9 10 10 10 11 12 12 12 11 12
8 8 8 8 8 9 10 10 8 9 11 11 11 11 11 10 10 10 10 10 10 10 11 11 11 11 11 11 10 10 10 11 11 10 10 10 10 10 10 10 10 11 11 12 12 13 13 12 12
9 9 8 9 9 9 9 10 9 10 11 13 12 11 11 11 11 10 10 10 11 11 11 12 12 12 11 11 11 11 11 11 11 11 11 11 10 11 11 11 11 11 11 12 13 13 13 13 13
9 9 9 8 9 9 9 10 11 10 12 13 13 12 12 12 12 12 11 11 11 12 12 12 12 12 12 11 11 11 12 12 12 12 12 12 12 12 12 13 13 12 12 12 12 13 13 14 14
10 10 9 9 9 9 10 12 12 12 13 14 15 14 13 13 13 13 12 12 12 12 12 13 12 12 12 12 12 12 12 12 12 13 13 13 14 14 14 14 14 14 13 13 13 14 14 14 15
11 10 9 9 9 10 11 12 13 13 14 15 15 14 14 14 14 14 13 13 13 13 13 13 13 13 12 12 12 12 12 12 13 13 14 14 14 15 15 15 14 14 14 15 15 15 15 16 16
12 11 11 11 11 11 12 12 14 14 15 16 15 15 15 15 14 14 14 14 13 13 13 13 13 13 13 13 13 13 13 13 13 14 14 14 14 14 15 15 15 15 15 16 16 16 15 15 15
13 13 12 12 12 12 13 14 14 14 17 17 16 15 15 15 15 14 14 14 14 14 14 14 14 13 14 14 14 14 14 14 14 14 14 14 14 14 15 15 17 16 16 16 15 15 14 14 15
14 14 14 14 14 14 13 14 14 16 17 18 17 16 16 15 16 16 14 14 15 15 15 14 14 14 14 14 15 15 15 15 15 15 15 16 16 16 16 17 17 17 16 16 15 15 15 15 15
15 14 14 15 15 15 15 15 14 17 18 19 18 18 17 16 16 16 16 15 15 15 15 15 15 15 15 15 15 16 16 16 16 16 16 17 17 17 17 17 17 17 16 16 15 15 15 16 17
Wind_Direction
343 338 334 330 323 317 324 327 322 321 317 309 302 295 291 286 284 283 285 280 278 273 271 268 265 263 262 261 260 257 253 251 254 256 257 256 248 246 247 245 239 239 237 234 236 235 233 232 236
338 333 333 331 324 327 330 330 325 319 318 310 305 300 296 291 289 288 289 288 284 278 274 270 267 265 264 263 261 260 258 255 254 257 259 254 249 246 247 244 240 237 235 235 238 239 240 239 240
337 333 335 328 336 336 327 327 325 323 319 311 306 303 297 293 293 293 292 290 287 283 278 272 268 268 266 263 262 258 258 259 258 255 256 255 253 248 244 242 240 240 238 239 238 242 243 241 242
342 338 333 335 342 338 332 331 328 325 320 313 312 309 300 295 292 293 295 292 288 285 281 276 273 270 267 265 263 262 261 263 262 258 257 256 252 251 247 243 245 247 245 241 239 244 242 242 246
346 340 336 339 343 337 335 334 334 330 326 323 322 319 313 304 299 298 299 295 289 285 282 281 280 275 269 267 266 265 264 263 263 259 257 257 257 253 250 247 250 250 248 246 248 246 243 244 247
345 341 342 343 340 334 331 330 328 330 329 326 324 324 318 312 308 306 302 298 291 287 287 286 286 283 276 271 269 266 266 264 264 262 258 256 255 254 247 246 247 249 248 245 247 246 247 249 252
341 346 346 340 335 334 332 329 327 325 323 323 324 326 320 317 313 310 304 300 294 294 293 289 288 286 284 279 276 271 269 266 261 262 260 256 252 251 248 245 246 248 246 249 250 254 253 254 252
337 338 343 339 333 331 328 323 320 319 319 321 324 324 319 318 316 314 310 307 304 304 304 301 293 286 285 282 280 277 272 268 263 259 259 258 255 252 252 251 247 247 248 249 251 254 255 254 255
334 332 339 337 333 328 323 321 315 315 313 314 318 321 322 322 319 319 317 314 314 313 313 313 309 301 294 287 283 281 276 272 267 262 260 259 258 255 257 253 252 249 248 249 249 252 253 255 257
337 333 333 328 330 329 324 322 318 318 318 318 319 322 322 324 326 324 323 323 321 320 320 319 315 310 302 295 288 286 283 277 271 266 261 258 261 259 258 258 259 253 252 253 252 253 254 256 259
336 331 328 326 327 326 322 319 317 321 322 321 321 320 322 323 325 327 328 329 328 327 325 318 311 308 307 299 293 289 286 282 275 268 264 261 262 263 264 266 264 262 260 260 258 259 257 256 260
335 334 330 329 331 328 324 320 318 319 322 323 323 324 325 326 329 330 333 334 332 332 334 331 323 312 311 308 302 294 291 290 285 278 271 267 264 262 264 264 263 264 263 263 261 263 263 263 263
334 335 331 331 331 330 328 324 322 320 319 321 325 327 328 329 329 329 333 336 341 341 342 341 338 325 320 314 308 304 301 297 291 286 280 275 269 262 260 261 262 263 263 263 263 267 269 267 266
332 333 334 333 332 332 332 332 328 326 326 325 327 328 331 333 335 335 337 340 344 346 344 339 334 329 322 316 310 305 300 302 299 289 287 279 276 272 264 261 262 262 261 259 263 266 267 267 267
328 329 334 335 335 334 334 336 334 331 333 331 326 326 329 329 332 336 338 341 345 345 343 335 333 333 326 319 314 311 304 301 296 291 292 284 285 281 275 268 265 266 262 259 263 266 267 270 271
333 330 331 331 335 334 332 338 339 336 333 329 326 325 326 323 327 330 330 330 333 334 334 328 325 325 323 321 315 308 302 297 293 291 291 289 285 283 279 273 270 269 266 264 264 266 268 269 271
330 325 325 326 331 328 328 333 334 333 330 325 324 323 323 320 320 320 321 321 323 325 325 323 319 316 316 318 317 309 302 301 297 295 295 292 285 279 278 273 272 269 268 267 269 270 268 267 272
317 314 316 318 327 323 324 325 328 325 324 326 324 321 320 319 316 315 315 315 317 319 319 319 318 316 314 313 312 308 303 301 300 299 297 291 287 285 282 278 274 271 269 269 271 273 272 268 271
299 298 299 309 319 318 321 323 323 320 321 319 319 319 315 312 310 310 311 312 314 315 315 316 317 317 312 306 304 304 305 302 298 296 292 287 286 286 284 283 278 277 273 269 272 274 273 272 271
296 296 297 302 309 314 316 319 321 321 320 316 316 316 316 313 310 308 311 312 313 313 314 313 314 314 311 309 307 301 301 304 304 302 291 283 284 287 288 285 279 280 277 274 273 273 272 271 270
292 295 297 301 305 310 313 316 317 317 315 313 311 312 312 312 312 310 311 311 312 311 312 313 313 313 308 307 306 301 299 300 301 298 292 285 282 283 287 284 282 280 278 278 276 273 270 268 267
290 295 296 301 307 314 312 312 319 316 314 312 312 312 310 310 310 309 309 310 312 311 310 310 312 313 309 307 305 301 301 299 296 294 290 287 284 283 284 283 283 285 280 277 278 274 271 268 267
287 292 296 300 300 304 309 309 312 312 311 311 315 312 309 307 308 308 308 309 311 312 309 309 310 310 307 305 303 301 299 297 296 294 291 290 287 287 286 284 285 288 283 280 278 276 274 270 270
284 287 291 295 297 299 303 302 303 306 304 307 311 309 307 304 305 306 306 306 308 310 309 306 307 306 305 304 303 300 298 295 293 291 291 291 291 289 288 286 285 286 285 282 280 275 276 271 272
277 281 288 293 296 298 297 294 298 298 300 305 307 305 304 300 299 300 301 302 303 304 305 304 302 303 303 303 303 301 298 295 293 291 289 289 289 288 287 286 284 285 285 285 283 278 277 274 272
273 272 277 285 286 288 288 288 298 302 303 303 302 301 301 300 299 298 298 300 299 300 301 301 298 299 299 300 300 299 299 298 296 293 290 288 287 286 287 286 285 282 282 284 283 280 280 278 275
272 270 272 270 272 276 278 281 289 299 299 300 301 301 302 302 301 302 299 299 299 300 300 298 298 297 297 299 299 299 299 297 296 295 293 290 287 286 286 287 285 282 282 285 285 283 282 279 276
271 270 270 271 274 277 277 277 285 294 296 298 299 299 301 302 302 301 299 297 298 300 299 297 295 295 295 296 299 301 299 296 294 294 293 292 288 286 285 285 285 283 282 285 284 281 283 281 279
270 265 266 269 268 273 275 274 283 290 294 295 297 298 299 299 300 302 300 298 298 299 299 298 297 296 295 296 297 298 298 297 296 294 294 293 289 286 284 284 283 284 284 286 284 282 282 283 283
271 268 267 267 269 270 276 276 279 285 291 296 297 296 298 299 299 301 300 299 298 298 296 296 296 295 295 295 295 295 296 295 295 294 293 292 291 289 287 285 282 283 284 284 282 283 285 285 286
Height
5871 5870 5870 5870 5870 5869 5868 5868 5867 5867 5867 5866 5866 5866 5865 5866 5867 5869 5867 5865 5866 5866 5866 5866 5866 5866 5866 5866 5867 5867 5867 5867 5867 5868 5868 5868 5868 5868 5869 5870 5871 5872 5872 5873 5874 5875 5875 5876 5877
5871 5870 5870 5870 5869 5868 5868 5867 5867 5866 5866 5866 5865 5865 5865 5865 5865 5865 5864 5864 5865 5865 5865 5864 5864 5865 5865 5865 5865 5865 5866 5866 5866 5866 5866 5866 5866 5867 5868 5868 5869 5870 5871 5872 5873 5873 5874 5875 5875
5870 5870 5870 5870 5868 5868 5867 5867 5866 5866 5865 5865 5865 5865 5864 5864 5864 5864 5864 5863 5863 5863 5863 5863 5863 5863 5863 5863 5863 5864 5864 5864 5864 5865 5865 5865 5865 5865 5866 5867 5868 5869 5870 5871 5871 5872 5873 5874 5874
5870 5870 5870 5869 5868 5867 5867 5866 5866 5865 5865 5864 5864 5864 5863 5863 5863 5863 5862 5862 5862 5862 5862 5861 5861 5861 5861 5861 5862 5862 5862 5862 5862 5863 5863 5863 5863 5864 5865 5866 5867 5868 5868 5869 5870 5871 5871 5872 5873
5870 5870 5870 5868 5867 5867 5867 5866 5866 5865 5864 5864 5863 5863 5863 5862 5862 5862 5861 5861 5861 5861 5861 5860 5860 5860 5860 5860 5860 5860 5860 5860 5861 5861 5862 5862 5862 5863 5864 5864 5865 5866 5867 5868 5869 5869 5870 5871 5871
5870 5870 5869 5868 5867 5867 5866 5866 5865 5865 5864 5863 5863 5863 5862 5862 5861 5861 5860 5860 5860 5860 5859 5859 5858 5858 5858 5858 5858 5858 5858 5859 5859 5860 5860 5861 5861 5861 5862 5863 5864 5865 5865 5867 5867 5868 5869 5869 5870
5870 5869 5868 5867 5867 5867 5866 5866 5865 5864 5864 5863 5862 5862 5861 5861 5860 5860 5859 5859 5858 5858 5858 5858 5857 5857 5856 5856 5856 5856 5856 5857 5857 5858 5858 5859 5859 5860 5861 5862 5862 5863 5864 5865 5866 5867 5867 5868 5868
5869 5870 5868 5867 5867 5867 5866 5865 5865 5864 5863 5863 5862 5861 5861 5860 5859 5859 5858 5858 5857 5857 5856 5856 5856 5855 5855 5855 5855 5855 5855 5855 5855 5856 5856 5857 5858 5858 5859 5860 5861 5861 5862 5863 5864 5865 5865 5866 5867
5869 5870 5868 5867 5867 5866 5866 5865 5864 5863 5863 5862 5861 5861 5860 5859 5859 5858 5857 5857 5856 5856 5855 5855 5854 5854 5854 5853 5853 5853 5853 5853 5854 5854 5855 5855 5856 5857 5857 5858 5859 5860 5860 5861 5862 5863 5863 5864 5865
5869 5869 5868 5867 5867 5866 5865 5864 5864 5863 5862 5862 5861 5860 5859 5859 5858 5857 5857 5856 5856 5855 5854 5854 5853 5853 5852 5852 5852 5852 5852 5852 5852 5852 5853 5853 5854 5855 5855 5856 5857 5858 5858 5859 5860 5860 5861 5862 5863
5869 5868 5867 5867 5866 5865 5864 5864 5863 5862 5862 5861 5860 5860 5859 5858 5857 5857 5856 5856 5855 5854 5853 5852 5852 5851 5851 5851 5851 5851 5851 5851 5851 5851 5851 5851 5852 5852 5853 5854 5855 5855 5856 5857 5857 5858 5859 5860 5861
5868 5868 5867 5866 5866 5865 5864 5863 5862 5862 5861 5860 5859 5859 5858 5858 5857 5856 5856 5855 5854 5853 5852 5851 5851 5850 5850 5850 5849 5849 5849 5849 5849 5849 5850 5850 5850 5851 5851 5852 5853 5854 5854 5855 5856 5856 5857 5858 5859
5868 5867 5867 5866 5865 5864 5863 5863 5862 5861 5860 5860 5859 5858 5858 5857 5856 5856 5855 5854 5854 5853 5852 5851 5850 5850 5849 5849 5848 5848 5848 5847 5848 5848 5848 5848 5848 5849 5850 5850 5851 5852 5852 5853 5854 5854 5855 5856 5857
5867 5866 5866 5865 5865 5864 5863 5862 5861 5861 5860 5859 5859 5858 5857 5856 5856 5855 5855 5854 5853 5853 5852 5851 5850 5849 5849 5848 5848 5847 5847 5846 5846 5847 5847 5847 5847 5847 5848 5848 5849 5850 5850 5851 5852 5852 5853 5854 5855
5866 5866 5865 5865 5864 5863 5863 5862 5861 5860 5859 5859 5858 5858 5857 5856 5855 5855 5854 5854 5853 5852 5851 5850 5849 5849 5848 5847 5847 5846 5846 5846 5846 5846 5846 5846 5846 5846 5846 5847 5847 5848 5848 5849 5850 5851 5851 5852 5853
5866 5865 5865 5864 5863 5863 5864 5862 5861 5860 5859 5858 5858 5857 5856 5856 5855 5854 5854 5853 5853 5852 5851 5850 5849 5848 5847 5846 5846 5845 5845 5845 5845 5845 5844 5844 5844 5844 5845 5845 5845 5846 5847 5847 5848 5849 5849 5850 5851
5865 5865 5864 5864 5863 5862 5862 5861 5860 5859 5858 5858 5857 5856 5856 5855 5854 5854 5853 5852 5852 5851 5850 5849 5848 5847 5846 5846 5845 5844 5844 5844 5843 5843 5843 5843 5843 5843 5843 5843 5844 5844 5845 5845 5846 5847 5847 5848 5849
5865 5864 5864 5863 5862 5861 5861 5860 5860 5859 5858 5857 5856 5855 5855 5854 5853 5853 5852 5851 5851 5850 5849 5848 5847 5847 5846 5845 5844 5843 5843 5843 5842 5842 5841 5841 5841 5841 5842 5842 5842 5843 5843 5843 5844 5845 5845 5846 5847
5864 5863 5863 5862 5861 5861 5860 5859 5859 5858 5857 5856 5855 5855 5854 5853 5853 5852 5851 5850 5849 5849 5848 5847 5846 5845 5844 5843 5843 5842 5842 5841 5841 5840 5840 5840 5840 5840 5840 5840 5840 5841 5841 5841 5842 5842 5843 5844 5844
5863 5862 5862 5861 5860 5860 5859 5858 5858 5857 5856 5855 5854 5854 5853 5852 5851 5851 5850 5849 5848 5847 5846 5846 5845 5844 5843 5842 5841 5841 5840 5840 5839 5839 5838 5838 5838 5838 5838 5838 5838 5839 5839 5839 5840 5840 5841 5841 5842
5861 5861 5860 5860 5859 5858 5858 5857 5857 5856 5855 5854 5853 5852 5852 5851 5850 5849 5849 5848 5847 5846 5845 5844 5843 5842 5841 5841 5840 5839 5839 5838 5838 5837 5837 5837 5836 5836 5836 5836 5836 5836 5837 5837 5837 5837 5838 5838 5839
5859 5859 5859 5858 5858 5857 5857 5856 5855 5854 5854 5853 5852 5851 5850 5849 5848 5848 5847 5846 5845 5844 5843 5842 5841 5840 5839 5838 5838 5837 5837 5836 5836 5835 5835 5835 5834 5834 5834 5834 5834 5834 5834 5834 5834 5834 5835 5835 5835
5858 5857 5857 5857 5856 5856 5855 5855 5855 5853 5852 5851 5850 5849 5848 5848 5847 5846 5845 5844 5843 5842 5841 5840 5839 5838 5837 5836 5836 5835 5834 5834 5833 5833 5833 5833 5832 5832 5832 5832 5831 5831 5831 5831 5831 5831 5831 5832 5832
5855 5856 5855 5855 5854 5854 5854 5854 5853 5852 5851 5850 5849 5848 5847 5846 5845 5844 5843 5842 5841 5840 5839 5838 5837 5836 5835 5834 5833 5833 5832 5831 5831 5830 5830 5830 5830 5829 5829 5829 5829 5828 5828 5828 5828 5828 5828 5828 5828
5854 5854 5853 5852 5852 5853 5853 5852 5852 5850 5849 5848 5847 5846 5845 5844 5843 5842 5841 5840 5839 5838 5837 5836 5835 5834 5833 5832 5831 5830 5830 5829 5828 5828 5827 5827 5827 5826 5826 5826 5825 5825 5825 5825 5825 5825 5825 5824 5824
5851 5851 5852 5852 5851 5851 5850 5849 5850 5848 5847 5846 5845 5844 5843 5841 5840 5840 5839 5838 5837 5835 5834 5833 5832 5831 5830 5830 5829 5828 5827 5826 5825 5825 5824 5824 5823 5823 5822 5822 5822 5822 5821 5821 5821 5821 5820 5820 5820
5847 5847 5848 5848 5848 5848 5848 5848 5847 5845 5845 5843 5842 5841 5840 5839 5838 5837 5836 5835 5834 5832 5831 5830 5829 5828 5828 5827 5826 5825 5824 5823 5822 5822 5821 5820 5820 5819 5819 5818 5818 5818 5817 5817 5817 5816 5816 5815 5815
5845 5845 5845 5845 5845 5845 5846 5845 5844 5843 5842 5841 5840 5838 5837 5836 5835 5834 5833 5831 5831 5829 5828 5827 5826 5825 5825 5824 5823 5822 5821 5820 5819 5818 5817 5817 5816 5816 5815 5815 5814 5813 5812 5813 5812 5812 5812 5811 5811
5841 5841 5841 5841 5842 5842 5842 5844 5841 5840 5839 5838 5836 5835 5834 5833 5831 5830 5829 5828 5827 5826 5825 5824 5823 5822 5821 5821 5820 5819 5818 5817 5816 5815 5814 5813 5813 5812 5812 5811 5810 5809 5809 5808 5808 5808 5808 5807 5807
5836 5836 5837 5838 5838 5838 5838 5841 5838 5837 5835 5834 5833 5832 5830 5829 5828 5827 5826 5825 5824 5823 5822 5821 5820 5819 5818 5817 5816 5815 5814 5813 5812 5811 5810 5809 5808 5808 5807 5806 5806 5805 5805 5805 5804 5804 5804 5803 5803